Hourly Weather Roundup
Issued by NWS Central Illinois

Home | Current Version | Previous Version | Text Only | Print | Product List | Glossary On
Versions: 1 2 3 4 5 6 7 8 9 10 11 12 13 14 15 16 17 18 19 20 21 22 23 24 25 26 27 28 29 30 31 32 33 34 35 36 37 38 39 40 41 42 43 44 45 46 47 48 49 50
000
NZUS43 KILX 231910
HWRILX

Area Weather Roundup
National Weather Service Lincoln IL
100 PM CST THU NOV 23 2017

NOTE:  "FAIR" indicates few or no clouds below 12,000 feet, with
       no sigificant weather and/or obstructions to visibility.


CITY           SKY/WX    TMP DP  RH WIND       PRES   REMARKS
Bloomington    SUNNY     47  27  45 SW13      29.94F
Champaign      SUNNY     48  26  42 S15       29.98F
Danville       SUNNY     44  28  53 SW14      29.96F
Decatur        SUNNY     48  26  42 SW12      29.97F
Effingham      SUNNY     49  27  41 S9        30.02F
Flora          SUNNY     50  26  39 S10       30.02F
Galesburg      SUNNY     47  28  47 SW5       29.95F
Jacksonville   SUNNY     49  26  39 SW6       29.95F
Lacon          SUNNY     46  24  42 SW7       29.94S
Lawrenceville  SUNNY     46  25  43 S8        30.05F
Litchfield     SUNNY     50  30  45 S12       29.97F
$$


CITY           SKY/WX    TMP DP  RH WIND       PRES   REMARKS
Lincoln        SUNNY     50  29  43 SW6       29.95F
Macomb         SUNNY     47  27  45 W6        29.97F
Mattoon        SUNNY     45  27  49 S12G18    29.99F
Mt Carmel AP   SUNNY     46  23  41 S10       30.04F
Olney-Noble AP SUNNY     48  19  31 S9        30.03F
Paris AP       SUNNY     44  29  54 S9        30.02F
Peoria         SUNNY     47  25  42 SW7       29.95F
Pontiac        SUNNY     47  27  46 S12       29.95F
Rantoul        SUNNY     49  29  47 SW10      29.96F
Robinson       SUNNY     45  24  42 S8        30.05F
Springfield    SUNNY     51  26  37 SW10      29.97F
Taylorville    SUNNY     49  27  42 SW9       29.97F
$$

...REGIONAL REPORTS...


CITY           SKY/WX    TMP DP  RH WIND       PRES   REMARKS
Chicago O`Hare MOSUNNY   45  24  43 SW12      29.91F
Kankakee       SUNNY     47  25  41 SW14      29.96F
Moline         SUNNY     47  24  40 W3        29.93F
Mount Sterling SUNNY     48  27  44 SW6       29.95S
Mount Vernon   SUNNY     50  27  40 S10       30.02F
Pittsfield     SUNNY     51  28  41 W9        29.96F
Quincy         SUNNY     49  27  42 SW8       29.96F
Rockford       SUNNY     45  23  42 W8        29.95S
$$


CITY           SKY/WX    TMP DP  RH WIND       PRES   REMARKS
Burlington     SUNNY     48  28  46 SW7       29.95S
Cedar Rapids   SUNNY     48  26  42 NW7       29.92F
Des Moines     PTSUNNY   51  29  42 NW8       29.95F
Kirksville     SUNNY     54  32  43 VRB7      29.96F
Ottumwa        SUNNY     50  29  44 W7        29.94F
St Louis       MOSUNNY   56  24  29 SW9       29.98F
$$


CITY           SKY/WX    TMP DP  RH WIND       PRES   REMARKS
Terre Haute    SUNNY     43  24  47 S10       30.03F
Evansville     LGT RAIN  46  22  38 S8        30.07F
Indianapolis   MOSUNNY   44  20  38 S8        30.03F
Lafayette      SUNNY     43  24  47 S8        30.00F
Madison        MOSUNNY   41  21  44 SW7       29.90F
Milwaukee      MOSUNNY   44  23  43 W6        29.91F
$$






USA.gov is the U.S. government's official web portal to all federal, state and local government web resources and services.